Location: Taylor Dark Sky Site
(39.1017°N, 87.9564°W)
Time: 08:48:43
(UTC-05:00)

Amateur Radio Satellites - All Passes

Search period start: 23 July 2014 08:18
Search period end: 24 July 2014 08:18
Location: Taylor Dark Sky Site, 39.1017°N, 87.9564°W

Satellite Date Start Highest point End Downlink Frequencies (MHz)
Time Altitude Azimuth
KITSAT 1 23 Jul 08:33:34 08:41:24 52° 306° (NW) 08:49:18 435.175 FM
MaSat-1 23 Jul 08:57:11 09:02:20 50° 251° (WSW) 09:07:14 437.345 MHz
PANSAT 23 Jul 08:58:01 09:00:26 16° 175° (S) 09:02:51 not established
Saudisat 1A 23 Jul 09:09:01 09:13:23 64° 119° (ESE) 09:17:47 436.775 MHz
ISS 23 Jul 09:14:17 09:17:27 40° 224° (SW) 09:20:37 145.800 FM
HO-68 23 Jul 09:50:00 09:57:05 62° 103° (ESE) 10:04:07 435.675 MHz FM
Sapphire 23 Jul 09:52:47 09:55:22 13° 42° (NE) 09:57:56 437.095 MHz 1200 baud AX-25 AFSK
UKube-1 23 Jul 09:56:33 10:00:49 51° 100° (E) 10:05:02 145.840 MHz, 145.915 MHz
PCSat 23 Jul 10:25:41 10:30:04 24° 50° (NE) 10:34:26 145.825 MHz
KITSAT 1 23 Jul 10:34:38 10:38:57 15° 331° (NNW) 10:43:17 435.175 FM
PANSAT 23 Jul 10:37:44 10:39:59 15° 188° (S) 10:42:13 not established
Oscar 11 23 Jul 10:48:40 10:53:00 80° 284° (WNW) 10:57:20 145.825 FM, Beacon 2401.500 USB
Saudisat 1A 23 Jul 10:50:38 10:53:24 16° 316° (NW) 10:56:10 436.775 MHz
FUNcube-1 23 Jul 10:52:35 10:56:28 37° 98° (E) 11:00:20 145.950 - 145.970 MHz USB
Sapphire 23 Jul 11:34:14 11:39:41 78° 61° (ENE) 11:45:06 437.095 MHz 1200 baud AX-25 AFSK
UKube-1 23 Jul 11:34:15 11:36:34 14° 296° (WNW) 11:38:53 145.840 MHz, 145.915 MHz
HO-68 23 Jul 11:38:39 11:44:14 26° 300° (WNW) 11:49:49 435.675 MHz FM
PCSat 23 Jul 12:08:31 12:13:45 50° 248° (WSW) 12:18:56 145.825 MHz
FUNcube-1 23 Jul 12:29:54 12:32:35 17° 293° (WNW) 12:35:16 145.950 - 145.970 MHz USB
Oscar 19 23 Jul 12:58:14 13:02:49 35° 69° (ENE) 13:07:25 437.125 CW, 437.150 USB
JAS-1B 23 Jul 13:07:22 13:13:52 24° 54° (NE) 13:20:52 435.800 - 435.900 CW/SSB
Sapphire 23 Jul 13:20:04 13:22:22 13° 257° (WSW) 13:24:41 437.095 MHz 1200 baud AX-25 AFSK
RS-15 23 Jul 13:22:37 13:32:10 34° 106° (ESE) 13:41:30 29.354 - 29.394 USB, Beacon 29.352 USB
Oscar 16 23 Jul 13:24:56 13:29:59 67° 74° (ENE) 13:35:05 437.025 USB, Beacon 2401.1428
ITAMSAT 1 23 Jul 13:33:17 13:38:00 36° 69° (ENE) 13:42:43 435.822 SSB
Gurwin Techsat 1B 23 Jul 13:40:02 13:43:23 17° 63° (ENE) 13:46:44 435.225 FM
AO-27 23 Jul 13:50:25 13:55:28 53° 72° (ENE) 14:00:33 436.795 MHz FM
Uribyol 2 23 Jul 13:53:53 13:58:59 59° 73° (ENE) 14:04:07 436.500 FM
AO-Echo 23 Jul 14:02:25 14:07:37 68° 74° (ENE) 14:12:56 ?
SO-50 23 Jul 14:11:18 14:15:45 83° 120° (ESE) 14:20:18 436.795 FM
KITSAT 1 23 Jul 14:33:27 14:38:39 18° 34° (NNE) 14:43:49 435.175 FM
Oscar 19 23 Jul 14:37:57 14:42:11 26° 265° (W) 14:46:26 437.125 CW, 437.150 USB
JAS-1B 23 Jul 14:54:36 15:02:58 88° 255° (WSW) 15:12:41 435.800 - 435.900 CW/SSB
TMSAT-1 23 Jul 14:57:11 15:02:25 64° 73° (ENE) 15:07:40 436.925 FM
AO-7 23 Jul 15:05:31 15:12:39 33° 59° (ENE) 15:19:48 29.400 - 29.500 MHz
UOSAT-12 23 Jul 15:07:17 15:10:46 22° 111° (ESE) 15:14:18 437.025 FM, 437.400 FM
Oscar 16 23 Jul 15:07:23 15:09:47 13° 269° (W) 15:12:12 437.025 USB, Beacon 2401.1428
ITAMSAT 1 23 Jul 15:13:10 15:17:31 27° 265° (W) 15:21:53 435.822 SSB
Gurwin Techsat 1B 23 Jul 15:17:35 15:22:49 61° 259° (W) 15:28:06 435.225 FM
AO-27 23 Jul 15:31:49 15:35:16 18° 267° (W) 15:38:45 436.795 MHz FM
RS-15 23 Jul 15:32:45 15:43:47 65° 306° (NW) 15:54:39 29.354 - 29.394 USB, Beacon 29.352 USB
Uribyol 2 23 Jul 15:35:47 15:38:50 16° 268° (W) 15:41:53 436.500 FM
AO-Echo 23 Jul 15:44:11 15:46:51 14° 270° (W) 15:49:33 ?
Uosat F 23 Jul 15:54:28 15:59:21 52° 72° (ENE) 16:04:15 435.120 FM
SO-50 23 Jul 15:54:38 15:56:56 14° 319° (NW) 15:59:16 436.795 FM
OPAL 23 Jul 16:25:44 16:30:25 37° 100° (E) 16:35:07 ?
KITSAT 1 23 Jul 16:27:42 16:35:46 65° 57° (ENE) 16:43:45 435.175 FM
JAS-2 23 Jul 16:29:46 16:33:49 15° 57° (ENE) 16:37:46 435.800 - 435.900 CW/SSB, 435.910 FM
TMSAT-1 23 Jul 16:39:50 16:42:45 15° 269° (W) 16:45:41 436.925 FM
UOSAT-12 23 Jul 16:46:18 16:50:38 41° 308° (NW) 16:55:05 437.025 FM, 437.400 FM
JAS-1B 23 Jul 16:49:22 16:54:51 18° 276° (W) 17:00:48 435.800 - 435.900 CW/SSB
AO-7 23 Jul 16:56:50 17:04:59 57° 257° (WSW) 17:13:13 29.400 - 29.500 MHz
Hamsat 23 Jul 17:27:31 17:31:07 29° 71° (ENE) 17:34:44 145.90 MHz
Uosat F 23 Jul 17:35:11 17:38:25 17° 267° (W) 17:41:40 435.120 FM
Saudisat 1A 23 Jul 17:37:00 17:41:07 37° 52° (NE) 17:45:11 436.775 MHz
RS-15 23 Jul 17:50:42 17:58:50 23° 335° (NNW) 18:06:59 29.354 - 29.394 USB, Beacon 29.352 USB
Oscar 10/S400 23 Jul 17:53:49 18:04:45 16° 143° (SE) 18:15:27 145.825 - 145.975 CW/USB, Beacon 145.810 USB
OPAL 23 Jul 18:05:01 18:09:06 25° 296° (WNW) 18:13:12 ?
JAS-2 23 Jul 18:09:50 18:17:40 74° 73° (ENE) 18:25:14 435.800 - 435.900 CW/SSB, 435.910 FM
KITSAT 1 23 Jul 18:24:08 18:30:30 27° 255° (WSW) 18:36:51 435.175 FM
STRAND 1 23 Jul 18:39:48 18:43:27 20° 93° (E) 18:47:05 ?
SO-67 23 Jul 18:49:45 18:52:54 33° 73° (ENE) 18:56:04 435.3500 MHz FM
Hamsat 23 Jul 19:03:55 19:07:05 21° 266° (W) 19:10:17 145.90 MHz
Saudisat 1A 23 Jul 19:17:06 19:20:28 22° 249° (WSW) 19:23:48 436.775 MHz
JAS-2 23 Jul 19:57:19 20:03:08 22° 269° (W) 20:08:52 435.800 - 435.900 CW/SSB, 435.910 FM
RS-15 23 Jul 20:10:06 20:17:01 18° 12° (NNE) 20:24:00 29.354 - 29.394 USB, Beacon 29.352 USB
HO-68 23 Jul 20:17:20 20:23:56 42° 65° (ENE) 20:30:33 435.675 MHz FM
STRAND 1 23 Jul 20:17:58 20:22:51 46° 289° (WNW) 20:27:41 ?
SO-67 23 Jul 20:24:42 20:26:06 12° 268° (W) 20:27:30 435.3500 MHz FM
UKube-1 23 Jul 20:51:01 20:55:04 39° 71° (ENE) 20:59:09 145.840 MHz, 145.915 MHz
Oscar 11 23 Jul 21:42:24 21:46:40 68° 75° (ENE) 21:50:57 145.825 FM, Beacon 2401.500 USB
FUNcube-1 23 Jul 21:48:12 21:51:56 28° 70° (ENE) 21:55:36 145.950 - 145.970 MHz USB
HO-68 23 Jul 22:05:08 22:11:38 37° 262° (W) 22:18:09 435.675 MHz FM
RS-15 23 Jul 22:23:14 22:33:32 42° 44° (NE) 22:44:06 29.354 - 29.394 USB, Beacon 29.352 USB
UKube-1 23 Jul 22:28:31 22:31:25 17° 266° (W) 22:34:20 145.840 MHz, 145.915 MHz
SO-50 23 Jul 22:43:54 22:48:34 55° 55° (NE) 22:53:17 436.795 FM
MaSat-1 23 Jul 22:47:34 22:51:23 81° 295° (WNW) 22:55:55 437.345 MHz
FUNcube-1 23 Jul 23:24:43 23:28:17 24° 264° (W) 23:31:49 145.950 - 145.970 MHz USB
UOSAT-12 23 Jul 23:37:36 23:40:48 18° 43° (NE) 23:43:59 437.025 FM, 437.400 FM
Lituanica SAT-1 24 Jul 00:16:52 00:19:00 73° 321° (NW) 00:21:08 437.275 MHz beacon
ISS 24 Jul 00:21:15 00:22:39 12° 128° (SE) 00:24:03 145.800 FM
SO-50 24 Jul 00:25:40 00:28:43 17° 251° (WSW) 00:31:46 436.795 FM
RS-15 24 Jul 00:35:34 00:46:19 60° 247° (WSW) 00:57:31 29.354 - 29.394 USB, Beacon 29.352 USB
Sapphire 24 Jul 00:36:18 00:37:30 11° 102° (ESE) 00:38:43 437.095 MHz 1200 baud AX-25 AFSK
PCSat 24 Jul 01:06:48 01:11:07 25° 107° (ESE) 01:15:27 145.825 MHz
Oscar 19 24 Jul 01:12:31 01:14:54 13° 91° (E) 01:17:16 437.125 CW, 437.150 USB
UOSAT-12 24 Jul 01:16:43 01:21:24 65° 242° (WSW) 01:26:00 437.025 FM, 437.400 FM
Oscar 16 24 Jul 01:38:20 01:42:36 26° 95° (E) 01:46:50 437.025 USB, Beacon 2401.1428
ITAMSAT 1 24 Jul 01:48:58 01:51:24 13° 91° (E) 01:53:49 435.822 SSB
ISS 24 Jul 01:55:39 01:58:58 67° 323° (NW) 02:02:19 145.800 FM
AO-27 24 Jul 02:05:31 02:09:20 20° 94° (E) 02:13:07 436.795 MHz FM
Uribyol 2 24 Jul 02:08:33 02:12:35 23° 94° (E) 02:16:36 436.500 FM
AO-Echo 24 Jul 02:11:54 02:16:01 24° 94° (E) 02:20:00 ?
Sapphire 24 Jul 02:14:41 02:20:05 88° 297° (WNW) 02:25:32 437.095 MHz 1200 baud AX-25 AFSK
JAS-1B 24 Jul 02:43:01 02:51:39 37° 93° (E) 02:59:13 435.800 - 435.900 CW/SSB
PCSat 24 Jul 02:49:07 02:54:14 43° 304° (NW) 02:59:25 145.825 MHz
Oscar 19 24 Jul 02:49:33 02:54:41 68° 286° (WNW) 02:59:49 437.125 CW, 437.150 USB
TMSAT-1 24 Jul 03:14:43 03:19:13 28° 95° (E) 03:23:40 436.925 FM
Oscar 16 24 Jul 03:17:18 03:21:59 36° 291° (WNW) 03:26:39 437.025 USB, Beacon 2401.1428
ITAMSAT 1 24 Jul 03:26:12 03:31:21 68° 286° (WNW) 03:36:28 435.822 SSB
ISS 24 Jul 03:34:11 03:36:14 15° 342° (NNW) 03:38:17 145.800 FM
Gurwin Techsat 1B 24 Jul 03:34:55 03:40:11 60° 101° (E) 03:45:25 435.225 FM
OPAL 24 Jul 03:39:40 03:44:32 59° 71° (ENE) 03:49:24 ?
AO-27 24 Jul 03:44:06 03:49:02 45° 289° (WNW) 03:53:56 436.795 MHz FM
Uribyol 2 24 Jul 03:47:23 03:52:11 40° 290° (WNW) 03:56:57 436.500 FM
AO-Echo 24 Jul 03:50:10 03:54:52 37° 291° (WNW) 03:59:25 ?
Sapphire 24 Jul 04:01:18 04:04:18 15° 317° (NW) 04:07:19 437.095 MHz 1200 baud AX-25 AFSK
Uosat F 24 Jul 04:04:32 04:07:49 17° 93° (E) 04:11:04 435.120 FM
JAS-1B 24 Jul 04:33:05 04:42:21 54° 293° (WNW) 04:50:30 435.800 - 435.900 CW/SSB
TMSAT-1 24 Jul 04:54:23 04:59:08 35° 291° (WNW) 05:03:52 436.925 FM
AO-7 24 Jul 04:59:32 05:07:41 55° 102° (ESE) 05:15:44 29.400 - 29.500 MHz
Gurwin Techsat 1B 24 Jul 05:16:16 05:19:38 17° 297° (WNW) 05:23:00 435.225 FM
OPAL 24 Jul 05:21:07 05:23:46 14° 266° (W) 05:26:27 ?
Uosat F 24 Jul 05:42:01 05:46:52 50° 288° (WNW) 05:51:41 435.120 FM
STRAND 1 24 Jul 05:54:33 05:58:47 27° 67° (ENE) 06:03:01 ?
JAS-1B 24 Jul 06:26:51 06:30:27 13° 315° (NW) 06:33:57 435.800 - 435.900 CW/SSB
Lituanica SAT-1 24 Jul 06:30:56 06:33:02 49° 36° (NE) 06:35:08 437.275 MHz beacon
Hamsat 24 Jul 06:49:25 06:53:42 72° 102° (ESE) 06:58:00 145.90 MHz
ISS 24 Jul 06:49:28 06:51:57 19° 23° (NNE) 06:54:25 145.800 FM
AO-7 24 Jul 06:52:53 07:00:04 34° 301° (WNW) 07:07:14 29.400 - 29.500 MHz
KITSAT 1 24 Jul 06:54:24 07:02:10 53° 112° (ESE) 07:09:57 435.175 FM
MaSat-1 24 Jul 07:07:15 07:11:32 24° 53° (NE) 07:15:43 437.345 MHz
JAS-2 24 Jul 07:07:17 07:13:29 69° 101° (E) 07:18:58 435.800 - 435.900 CW/SSB, 435.910 FM
STRAND 1 24 Jul 07:33:06 07:37:47 36° 262° (W) 07:42:31 ?
Saudisat 1A 24 Jul 07:45:06 07:46:47 12° 108° (ESE) 07:48:28 436.775 MHz
SO-67 24 Jul 07:47:27 07:50:50 48° 99° (E) 07:54:11 435.3500 MHz FM
